Regional Weather Roundup
Issued by NWS Jackson, KY

Home | Current Version | Previous Version | Text Only | Print | Product List | Glossary Off
Versions: 1 2 3 4 5 6 7 8 9 10 11 12 13 14 15 16 17 18 19 20 21 22 23 24 25 26 27 28 29 30 31 32 33 34 35 36 37 38 39 40 41 42 43 44 45 46 47 48 49 50

000
ASUS43 KJKL 231205
RWRJKL

EAST KENTUCKY HOURLY WEATHER ROUNDUP
NATIONAL WEATHER SERVICE JACKSON KY
800 AM EDT TUE SEP 23 2014

NOTE: "FAIR" INDICATES FEW OR NO CLOUDS BELOW 12,000 FEET WITH
NO SIGNIFICANT WEATHER AND/OR OBSTRUCTIONS TO VISIBILITY.

* THESE REPORTS ARE NOT UNDER NWS QUALITY CONTROL AND MAY NOT
  REPORT WEATHER SUCH AS PRECIPITATION AND FOG.

KYZ079-080-083-085-087-088-110-112-115-119-120-231300
...EASTERN KENTUCKY...

CITY           SKY/WX    TMP DP  RH WIND       PRES   REMARKS
JACKSON        CLEAR     48  44  86 CALM      30.30R
6HR MIN TEMP:  48; 6HR MAX TEMP:  54;

LONDON         CLEAR     46  42  86 CALM      30.30R
6HR MIN TEMP:  46; 6HR MAX TEMP:  50;

SOMERSET*      CLEAR     46  45  93 CALM      30.30R
MONTICELLO*    CLEAR     42  42 100 CALM      30.30R
6HR MIN TEMP:  41; 6HR MAX TEMP:  44;

WILLIAMSBURG*  CLOUDY    41  41 100 CALM      30.29R
MIDDLESBORO*   FOG       47  47 100 NW3       30.30R VSB 1/2
6HR MIN TEMP:  46; 6HR MAX TEMP:  48;

HARLAN APT*    CLOUDY    46  46 100 MISG      30.29S VSB 1/4
BLACK MTN*       N/A     45  43  93 E2          N/A
PIKEVILLE APT* FOG       46  46 100 CALM      30.31R VSB 0
BIG SANDY*     FOG       45  45 100 CALM      30.32R VSB<1/4
6HR MIN TEMP:  42; 6HR MAX TEMP:  49;

MOREHEAD APT*  SUNNY     43  41  93 CALM      30.33R
$$

KYZ035-036-041-042-044-050-067-078-099-231300
...CENTRAL KENTUCKY...

CITY           SKY/WX    TMP DP  RH WIND       PRES   REMARKS
MT STERLING*   CLEAR     43  41  93 CALM      30.32S
FLEMING/MASON* PTCLDY    42  42  99 CALM      30.34R FOG
DANVILLE*      CLEAR     41  41 100 CALM      30.32R
RICHMOND*      CLEAR     41  39  93 CALM      30.30R
LEXINGTON      CLEAR     47  41  80 NE6       30.31R
6HR MIN TEMP:  44; 6HR MAX TEMP:  50;

FRANKFORT      CLEAR     42  39  89 CALM      30.31R
6HR MIN TEMP:  41; 6HR MAX TEMP:  47;

$$

KYZ091>093-OHZ055-061-077-WVZ005-015-034-035-042-231300
...SOUTHERN OHIO/WEST VIRGINIA...

CITY           SKY/WX    TMP DP  RH WIND       PRES   REMARKS
COVINGTON      CLEAR     48  45  89 CALM      30.32R
COLUMBUS       CLEAR     47  42  83 CALM      30.34R
DAYTON         CLEAR     45  41  86 CALM      30.34R
WILMINGTON     CLEAR     42  38  85 CALM      30.33R
HUNTINGTON     CLEAR     45  45 100 CALM      30.31R
CHARLESTON     FOG       45  45 100 E3        30.32R VSB 1/8
PINEVILLE*     FOG       46  46 100 MISG      30.37R VSB 1/4
BECKLEY        CLEAR     39  37  92 CALM      30.31R
BLUEFIELD      FOG       42  39  89 SE5       30.31R VSB<1/4
$$

VAZ002-007-008-TNZ017-027-036-066-071-231300
...SOUTHWEST VIRGINIA/EAST TENNESSEE...

CITY           SKY/WX    TMP DP  RH WIND       PRES   REMARKS
WISE*          CLEAR     46  46 100 NE5       30.30S
JONESVILLE*    FOG       41  41 100 CALM      30.31R VSB<1/4
ABINGDON*      CLEAR     46  45  93 E6        30.28R
BRISTOL        PTCLDY    44  42  93 CALM      30.28R
KNOXVILLE      PTCLDY    52  49  89 N7        30.24R
OAK RIDGE      CLEAR     51  49  92 CALM      30.27R
CROSSVILLE     CLEAR     48  44  86 NE5       30.27R
NASHVILLE      CLEAR     51  45  79 CALM      30.26R
$$

...KEY TO REMARKS...
VSB - VISIBILITY IN MILES
WCI - WIND CHILL INDEX
HX  - HEAT INDEX

$$


USA.gov is the U.S. government's official web portal to all federal, state and local government web resources and services.